[[{"header":{"parameterUnit":"m.s-1","parameterCategory":1,"la1":30.2991,"la2":30.254,"lo1":-89.0895,"lo2":-89.0444,"dy":0.0017,"dx":0.0017,"nx":28,"ny":28,"refTime":"2025-04-10T03:00:00:Z","depth":0,"parameterNumber":2,"parameterNumberName":"U-component_of_WINDS"},"data":[0,0,0,0,0,0,0,0,0,0,0,0,0,0,0,0,0,0,0,0,0,0,0,0,0,0,0,0,0,0,0,0,0,0,0,0,0,0,0,0,0,0,0,0,0,0,0,0,0,0,0,0,0,0,0,0,0,0,2.7861,2.7862,0,2.7961,2.7963,2.7964,2.7941,2.7939,2.7937,2.7935,2.8045,2.805,2.8055,0,0,0,0,0,0,0,0,0,0,0,0,0,2.7655,2.7659,2.786,2.7862,2.7863,2.7961,2.7963,2.7964,2.7941,2.7939,2.7937,2.7934,2.8044,2.8049,2.8055,0,0,0,0,0,0,0,0,0,0,0,0,0,2.7749,2.766,2.786,2.7863,2.7865,2.7961,2.7963,2.7964,2.7942,2.7939,2.7936,2.7933,2.8042,2.8049,2.8056,2.8157,0,0,2.8077,2.808,0,0,0,0,0,0,0,0,2.7744,2.7757,2.7862,2.7863,2.7865,2.7936,2.7931,2.8029,2.7943,2.7913,2.7935,2.7932,2.8012,2.8021,2.8046,2.8162,2.8167,2.8078,2.8082,2.8085,2.8087,0,0,0,0,0,0,0,2.7737,2.7752,2.7901,2.7863,2.7865,2.7862,2.7872,2.7949,2.7977,2.7915,2.7914,2.7926,2.8012,2.804,2.8049,2.8169,2.8078,2.8084,2.8088,2.8091,2.8375,2.8378,0,0,0,0,0,0,2.7728,2.7747,2.7897,2.7904,2.7796,2.7868,2.7879,2.7916,2.7976,2.7983,2.7928,2.7924,2.8029,2.8041,2.8053,2.8176,2.8085,2.8092,2.8096,2.8372,2.8376,2.8379,0,0,0,0,0,0,2.7724,2.7742,2.7893,2.7825,2.7844,2.7875,2.7916,2.7919,2.7947,2.7986,2.7992,2.7951,2.8027,2.8043,2.8131,2.818,2.8095,2.8102,2.8368,2.8373,2.8378,2.8424,0,0,0,0,0,0,2.7718,2.7741,2.7778,2.7826,2.7848,2.7968,2.7919,2.7923,2.7958,2.7954,2.8009,2.8015,2.8026,2.8121,2.8138,2.8188,2.8107,2.8364,2.837,2.8376,2.8418,2.843,2.8439,0,0,0,0,0,2.7711,2.7788,2.778,2.7798,2.7894,2.7971,2.7984,2.7993,2.7962,2.8001,2.8027,2.8013,2.8172,2.813,2.815,2.8202,2.8361,2.8368,2.8376,2.8413,2.8427,2.8439,0,0,0,0,0,0,2.7746,2.7794,2.7786,2.788,2.7921,2.7967,2.8016,2.8008,2.806,2.8054,2.8066,2.8078,2.8169,2.8195,2.8147,2.8304,2.8262,2.8274,2.8284,2.8298,2.8308,2.83,2.8113,0,0,0,0,0,2.7765,2.7821,2.7861,2.794,2.7961,2.7985,2.8019,2.8022,2.8067,2.8085,2.8116,2.8162,2.8222,2.8261,2.8319,2.8422,2.8434,2.8468,2.8478,2.8487,2.8497,2.8555,2.857,2.8404,2.8404,2.8403,0,0,2.7804,2.7837,2.7872,2.7948,2.798,2.8041,2.8,2.8065,2.8111,2.8095,2.818,2.8206,2.8257,2.8354,2.8398,2.8378,2.8546,2.8496,2.8503,2.8509,2.8564,2.858,2.8594,2.8409,2.8408,2.8407,0,0,2.7906,2.7936,2.8006,2.8039,2.8089,2.8104,2.8121,2.8168,2.8184,2.8269,2.8259,2.8315,2.8418,2.8455,2.8488,2.8606,2.8596,2.8624,2.8681,2.8737,2.875,2.8761,2.8804,2.8819,2.8634,2.8634,2.8634,0,2.7949,2.8037,2.8043,2.8109,2.8144,2.8131,2.8204,2.8236,2.8303,2.8328,2.8304,2.8434,2.8468,2.8573,2.8602,2.8628,2.865,2.8618,2.8747,2.8759,2.877,2.8811,2.8827,2.8637,2.8637,2.8637,2.8636,0,2.8088,2.8149,2.82,2.8263,2.8303,2.8372,2.8391,2.8432,2.8433,2.8451,2.854,2.858,2.8646,2.8671,2.8673,2.8778,2.8764,2.8744,2.8701,2.8789,2.8827,2.8843,2.8642,2.8641,2.864,2.8639,0,0,2.8214,2.828,2.8298,2.8327,2.8381,2.843,2.85,2.8562,2.8597,2.8644,2.8704,2.8792,2.8773,2.881,2.8817,2.8866,2.8958,2.884,2.8841,2.886,2.9077,2.9091,2.9109,2.8951,2.8955,2.8957,2.9072,0,2.8321,2.8441,2.845,2.8559,2.8617,2.8607,2.8667,2.8709,2.8729,2.8783,2.8806,2.8868,2.8838,2.8861,2.8909,2.8936,2.9001,2.8928,2.9009,2.9012,2.8996,2.9129,2.9145,2.9252,2.9088,2.909,2.9092,0,2.8462,2.8511,2.8625,2.8672,2.8697,2.8751,2.881,2.8861,2.8908,2.892,2.8961,2.8961,2.9035,2.899,2.9093,2.9043,2.9077,2.9096,2.91,2.9108,2.9057,2.9141,2.9286,2.9302,2.9116,2.9114,2.9112,0,2.8543,2.8638,2.8719,2.8744,2.8801,2.8839,2.8865,2.891,2.8947,2.8999,2.9024,2.9085,2.9118,2.9167,2.9184,2.9149,2.9286,2.9243,2.9299,2.9299,2.9328,2.9326,2.9481,2.935,2.935,2.935,2.935,0,2.8661,2.8732,2.8756,2.8806,2.8886,2.8896,2.8976,2.9,2.904,2.9096,2.9092,2.9145,2.9164,2.9221,2.9235,2.9319,2.9334,2.9347,2.935,2.9347,2.9346,2.9369,2.9362,2.9354,2.9353,2.9352,2.9352,0,2.8765,2.8784,2.8871,2.8918,2.8932,2.8988,2.9029,2.9078,2.9098,2.9169,2.9186,2.9218,2.9285,2.9307,2.9388,2.9398,2.9496,2.9492,2.9479,2.9479,2.9534,2.9529,2.971,2.9734,2.9588,2.9589,2.959,0,2.8839,2.8893,2.8945,2.8981,2.9008,2.9067,2.9105,2.9119,2.9159,2.9217,2.926,2.9326,2.9379,2.9487,2.9519,2.9582,2.958,2.9639,2.9589,2.9585,2.9581,2.9577,2.9583,2.9648,2.965,2.9651,2.9652,0,2.8969,2.8976,2.9029,2.9087,2.9132,2.9178,2.9223,2.9254,2.9275,2.932,2.9388,2.9429,2.9512,2.9578,2.9642,2.9671,2.9666,2.9667,2.9684,2.9681,2.9671,2.9678,2.9504,2.9663,2.9662,2.9661,2.9661,2.966,2.906,2.9108,2.9152,2.9212,2.9248,2.929,2.9338,2.9364,2.942,2.9487,2.9492,2.9566,2.9614,2.9699,2.9731,2.979,2.9774,2.9797,2.9803,2.9809,2.9813,2.9662,2.9802,2.9802,2.9802,2.9801,2.9801,0,2.919,2.9218,2.9273,2.9336,2.9384,2.9373,2.9423,2.9464,2.9528,2.9572,2.9625,2.9703,2.9768,2.9804,2.9869,2.991,2.9909,2.9926,2.9923,2.993,2.9824,2.9804,2.9926,2.9926,2.9926,2.9926,2.9926,2.9926,2.9263,2.9343,2.9356,2.9454,2.9483,2.9553,2.9582,2.9622,2.9657,2.9745,2.9797,2.982,2.9862,2.993,2.999,2.9999,3.0023,3.0043,3.005,2.9951,2.9938,2.9925,2.9906,3.0048,3.0048,3.0151,3.0152,3.0153]},{"header":{"parameterUnit":"m.s-1","parameterCategory":1,"la1":30.2991,"la2":30.254,"lo1":-89.0895,"lo2":-89.0444,"dy":0.0017,"dx":0.0017,"nx":28,"ny":28,"refTime":"2025-04-10T03:00:00:Z","depth":0,"parameterNumber":3,"parameterNumberName":"V-component_of_WINDS"},"data":[0,0,0,0,0,0,0,0,0,0,0,0,0,0,0,0,0,0,0,0,0,0,0,0,0,0,0,0,0,0,0,0,0,0,0,0,0,0,0,0,0,0,0,0,0,0,0,0,0,0,0,0,0,0,0,0,0,0,3.031,3.0311,0,3.045,3.0452,3.0453,3.0472,3.047,3.0469,3.0468,3.0606,3.0611,3.0616,0,0,0,0,0,0,0,0,0,0,0,0,0,3.0048,3.0053,3.031,3.0311,3.0313,3.045,3.0452,3.0454,3.0472,3.047,3.0469,3.0467,3.0604,3.061,3.0616,0,0,0,0,0,0,0,0,0,0,0,0,0,3.0172,3.0054,3.0309,3.0339,3.0343,3.045,3.0452,3.0454,3.0472,3.047,3.0468,3.0466,3.0603,3.061,3.0617,3.0702,0,0,3.064,3.0643,0,0,0,0,0,0,0,0,3.0165,3.0182,3.0333,3.0337,3.0342,3.0442,3.041,3.0537,3.0473,3.0423,3.0468,3.0465,3.0553,3.0564,3.0594,3.0709,3.0715,3.064,3.0645,3.0648,3.065,0,0,0,0,0,0,0,3.0156,3.0176,3.0365,3.0335,3.034,3.0342,3.0357,3.0434,3.0497,3.0427,3.0429,3.0445,3.0555,3.0587,3.0598,3.0717,3.064,3.0647,3.0651,3.0654,3.0901,3.0903,0,0,0,0,0,0,3.0143,3.0168,3.0361,3.0369,3.0247,3.0348,3.0366,3.0411,3.0496,3.0507,3.0447,3.0446,3.0576,3.0589,3.0603,3.0704,3.0648,3.0655,3.0659,3.0899,3.0901,3.0904,0,0,0,0,0,0,3.0138,3.0161,3.0355,3.0269,3.0294,3.0355,3.0406,3.0415,3.0448,3.0511,3.0522,3.047,3.0575,3.0592,3.0676,3.0709,3.0658,3.0665,3.0896,3.0899,3.0902,3.091,0,0,0,0,0,0,3.013,3.0158,3.0194,3.027,3.0299,3.0429,3.0408,3.0419,3.0461,3.0461,3.0535,3.0546,3.0574,3.0665,3.0684,3.0718,3.0671,3.0893,3.0898,3.0901,3.0907,3.0913,3.0918,0,0,0,0,0,3.0121,3.0191,3.0196,3.0219,3.0345,3.0431,3.0447,3.0481,3.0464,3.0498,3.0538,3.0543,3.0703,3.0674,3.0695,3.0732,3.0892,3.0896,3.0901,3.0904,3.0911,3.0918,0,0,0,0,0,0,3.0117,3.0202,3.0208,3.0305,3.0361,3.0434,3.0479,3.0488,3.0549,3.0546,3.0582,3.0599,3.068,3.0715,3.0681,3.0815,3.0795,3.0804,3.079,3.0798,3.0803,3.0792,3.0677,0,0,0,0,0,3.0127,3.0192,3.0262,3.0341,3.0368,3.0418,3.0457,3.0478,3.0536,3.0559,3.0606,3.066,3.0721,3.0762,3.0823,3.0912,3.0925,3.0947,3.0952,3.0957,3.0964,3.1007,3.1017,3.0919,3.0919,3.0919,0,0,3.0149,3.0203,3.0243,3.0341,3.0387,3.0449,3.0438,3.0507,3.0553,3.0569,3.0651,3.0686,3.0748,3.0834,3.0874,3.0865,3.0993,3.0963,3.0966,3.0971,3.1013,3.1022,3.1031,3.0923,3.0922,3.0921,0,0,3.0221,3.0271,3.034,3.0385,3.0453,3.0486,3.0501,3.0573,3.0597,3.0679,3.0691,3.0744,3.0852,3.0894,3.093,3.1011,3.1017,3.103,3.1059,3.1101,3.1108,3.1115,3.114,3.1149,3.1037,3.1037,3.1037,0,3.024,3.0338,3.0373,3.044,3.0481,3.0498,3.0565,3.0607,3.0691,3.0717,3.0706,3.0837,3.0881,3.0974,3.0993,3.1023,3.1039,3.1022,3.1105,3.1112,3.1119,3.1143,3.1153,3.1038,3.1038,3.1038,3.1038,0,3.0354,3.0422,3.0468,3.0549,3.0595,3.0662,3.0703,3.0745,3.076,3.0791,3.0871,3.0924,3.0993,3.1017,3.1033,3.111,3.1102,3.1098,3.1078,3.1129,3.1152,3.1162,3.1039,3.1039,3.1039,3.1038,0,0,3.043,3.0527,3.0543,3.0577,3.0652,3.0703,3.0768,3.0836,3.0869,3.0925,3.0977,3.1065,3.106,3.11,3.112,3.1157,3.1212,3.1148,3.115,3.1155,3.1295,3.1296,3.1307,3.1217,3.1219,3.122,3.1289,0,3.0508,3.0627,3.0658,3.0757,3.0816,3.0831,3.0887,3.0936,3.0966,3.1018,3.1051,3.1111,3.1102,3.1125,3.1163,3.1198,3.1241,3.1194,3.1262,3.1264,3.1244,3.132,3.1323,3.1385,3.1298,3.13,3.1301,0,3.0616,3.0674,3.0779,3.0841,3.0867,3.0917,3.0979,3.103,3.1084,3.1103,3.1145,3.116,3.1223,3.12,3.1285,3.1252,3.1281,3.1302,3.1305,3.1311,3.1285,3.1325,3.1407,3.1415,3.1317,3.1315,3.1314,0,3.0656,3.076,3.0835,3.0864,3.094,3.0973,3.1006,3.1058,3.1095,3.1149,3.1172,3.1232,3.1264,3.1307,3.1336,3.1317,3.1417,3.1397,3.1431,3.143,3.145,3.1448,3.1535,3.1473,3.1473,3.1473,3.1472,0,3.0738,3.0801,3.0853,3.0899,3.0967,3.1,3.1066,3.1099,3.1144,3.1193,3.121,3.1255,3.1292,3.134,3.1363,3.1427,3.1442,3.1456,3.1461,3.1454,3.1451,3.1472,3.1468,3.1475,3.1475,3.1474,3.1474,0,3.0795,3.0833,3.0914,3.0978,3.0995,3.1042,3.1095,3.1137,3.1167,3.1228,3.1244,3.1289,3.1347,3.1381,3.1454,3.1468,3.1538,3.1543,3.1521,3.1522,3.1552,3.1548,3.1654,3.1667,3.1598,3.1599,3.16,0,3.0844,3.0892,3.096,3.0995,3.1028,3.1084,3.1121,3.1153,3.1191,3.1253,3.1287,3.1346,3.1395,3.1486,3.1523,3.1577,3.1581,3.1614,3.1589,3.1579,3.1577,3.1573,3.1576,3.1618,3.1618,3.1619,3.1619,0,3.0926,3.0941,3.0996,3.1055,3.1099,3.1148,3.1195,3.1222,3.1261,3.1302,3.1362,3.1399,3.1472,3.1529,3.1586,3.1615,3.1622,3.1627,3.1637,3.1629,3.1613,3.1618,3.1529,3.1624,3.1624,3.1623,3.1623,3.1623,3.0978,3.102,3.1073,3.1131,3.117,3.1213,3.1255,3.1288,3.1339,3.1402,3.1417,3.1479,3.1526,3.1603,3.1633,3.1679,3.1673,3.1688,3.1692,3.1694,3.1693,3.1607,3.1689,3.1689,3.1689,3.1689,3.1689,0,3.1058,3.1092,3.1145,3.1211,3.1255,3.1259,3.1311,3.1347,3.1401,3.1446,3.1493,3.1558,3.1612,3.1652,3.1706,3.1734,3.1738,3.1747,3.1744,3.175,3.1698,3.1682,3.1742,3.1742,3.1742,3.1742,3.1742,3.1742,3.1104,3.1174,3.1194,3.128,3.1313,3.1375,3.1403,3.1441,3.1476,3.1549,3.1594,3.162,3.1661,3.1717,3.1764,3.1774,3.1792,3.18,3.1809,3.176,3.1754,3.1749,3.1734,3.1804,3.1804,3.1857,3.1858,3.1858]}]]